| time (UTC) | temp F | wind direction | speed MPH | gust MPH | rain 1hr in | rain 24hr in | rain mn in | humidity % | barometer mb |
| 20260509204744 | 41 | 330 | 0.0 | 0.0 | 0.00 | 0.00 | 0.00 | 98 | 1020.3 |
| 20260509204244 | 41 | 327 | 0.0 | 0.0 | 0.00 | 0.00 | 0.00 | 98 | 1020.3 |
| 20260509203744 | 42 | 312 | 0.0 | 0.0 | 0.00 | 0.00 | 0.00 | 98 | 1020.3 |
| 20260509203244 | 42 | 338 | 0.0 | 0.0 | 0.00 | 0.00 | 0.00 | 98 | 1020.3 |
| 20260509202744 | 42 | 338 | 0.0 | 0.0 | 0.00 | 0.00 | 0.00 | 97 | 1020.3 |
| 20260509202244 | 42 | 341 | 0.0 | 0.0 | 0.00 | 0.00 | 0.00 | 98 | 1020.3 |
| 20260509201744 | 42 | 335 | 0.0 | 0.0 | 0.00 | 0.00 | 0.00 | 97 | 1020.3 |
| 20260509201244 | 42 | 335 | 0.0 | 0.0 | 0.00 | 0.00 | 0.00 | 97 | 1020.3 |
| 20260509200744 | 42 | 338 | 0.0 | 0.0 | 0.00 | 0.00 | 0.00 | 97 | 1020.3 |
| 20260509200244 | 43 | 338 | 0.0 | 0.0 | 0.00 | 0.00 | 0.00 | 97 | 1020.3 |
| 20260509195744 | 43 | 338 | 0.0 | 0.0 | 0.00 | 0.00 | 0.00 | 97 | 1020.3 |
| 20260509195244 | 44 | 323 | 0.0 | 0.0 | 0.00 | 0.00 | 0.00 | 97 | 1020.3 |
| 20260509194744 | 44 | 338 | 0.0 | 0.0 | 0.00 | 0.00 | 0.00 | 97 | 1020.7 |
| 20260509194244 | 44 | 338 | 0.0 | 0.0 | 0.00 | 0.00 | 0.00 | 97 | 1020.7 |
| 20260509193744 | 44 | 337 | 0.0 | 0.0 | 0.00 | 0.00 | 0.00 | 97 | 1020.7 |
| 20260509193244 | 44 | 337 | 0.0 | 0.0 | 0.00 | 0.00 | 0.00 | 97 | 1020.7 |
| 20260509192744 | 45 | 336 | 0.0 | 0.0 | 0.00 | 0.00 | 0.00 | 96 | 1020.7 |
| 20260509192244 | 45 | 332 | 0.0 | 0.0 | 0.00 | 0.00 | 0.00 | 96 | 1020.7 |
| 20260509191744 | 46 | 332 | 0.0 | 0.0 | 0.00 | 0.00 | 0.00 | 95 | 1020.7 |
| 20260509191244 | 46 | 327 | 0.0 | 0.0 | 0.00 | 0.00 | 0.00 | 95 | 1020.7 |
| 20260509190744 | 46 | 328 | 0.0 | 0.0 | 0.00 | 0.00 | 0.00 | 94 | 1020.7 |
| 20260509190244 | 47 | 341 | 0.0 | 0.0 | 0.00 | 0.00 | 0.00 | 93 | 1020.7 |
| 20260509185744 | 47 | 341 | 0.0 | 0.0 | 0.00 | 0.00 | 0.00 | 93 | 1020.3 |
| 20260509185244 | 48 | 341 | 0.0 | 0.0 | 0.00 | 0.00 | 0.00 | 92 | 1020.3 |
| 20260509184744 | 49 | 341 | 0.0 | 0.0 | 0.00 | 0.00 | 0.00 | 91 | 1020.3 |
| 20260509184244 | 49 | 341 | 0.0 | 0.0 | 0.00 | 0.00 | 0.00 | 89 | 1020.3 |
| 20260509183744 | 50 | 341 | 0.0 | 0.0 | 0.00 | 0.00 | 0.00 | 88 | 1020.3 |
| 20260509183244 | 51 | 341 | 0.0 | 0.0 | 0.00 | 0.00 | 0.00 | 86 | 1020.3 |
| 20260509182744 | 51 | 308 | 1.0 | 1.0 | 0.00 | 0.00 | 0.00 | 85 | 1020.3 |
| 20260509182244 | 52 | 287 | 1.0 | 1.0 | 0.00 | 0.00 | 0.00 | 83 | 1020.3 |
| 20260509181744 | 52 | 302 | 1.0 | 1.0 | 0.00 | 0.00 | 0.00 | 82 | 1020.3 |
| 20260509181244 | 52 | 339 | 0.0 | 0.0 | 0.05 | 0.00 | 0.00 | 83 | 1020.3 |
| 20260509180744 | 52 | 339 | 0.0 | 0.0 | 0.05 | 0.00 | 0.00 | 82 | 1020.3 |
| 20260509180244 | 52 | 344 | 0.0 | 0.0 | 0.00 | 0.00 | 0.00 | 81 | 1020.3 |
| 20260509175744 | 52 | 341 | 0.0 | 0.0 | 0.00 | 0.00 | 0.00 | 80 | 1020.3 |
| 20260509175244 | 52 | 347 | 0.0 | 0.0 | 0.00 | 0.00 | 0.00 | 80 | 1020.3 |
| 20260509174744 | 53 | 352 | 1.0 | 1.0 | 0.00 | 0.00 | 0.00 | 79 | 1020.3 |
| 20260509174244 | 53 | 345 | 0.0 | 0.0 | 0.00 | 0.00 | 0.00 | 79 | 1020.3 |
| 20260509173744 | 53 | 0 | 3.0 | 3.0 | 0.00 | 0.00 | 0.00 | 77 | 1020.3 |
| 20260509173244 | 53 | 16 | 0.0 | 1.0 | 0.00 | 0.00 | 0.00 | 78 | 1020.3 |
| 20260509172744 | 53 | 353 | 1.0 | 1.0 | 0.05 | 0.00 | 0.00 | 77 | 1020.3 |
| 20260509172244 | 53 | 17 | 0.0 | 1.0 | 0.05 | 0.00 | 0.00 | 77 | 1020.0 |
| 20260509171744 | 53 | 16 | 3.0 | 5.0 | 0.00 | 0.00 | 0.00 | 76 | 1020.0 |
| 20260509171244 | 53 | 353 | 1.0 | 2.0 | 0.00 | 0.00 | 0.00 | 77 | 1020.0 |
| 20260509170744 | 53 | 6 | 3.0 | 4.0 | 0.00 | 0.00 | 0.00 | 76 | 1020.0 |
| 20260509170244 | 54 | 8 | 1.0 | 2.0 | 0.00 | 0.00 | 0.00 | 76 | 1020.0 |
| 20260509165744 | 54 | 16 | 2.0 | 2.0 | 0.00 | 0.00 | 0.00 | 76 | 1020.0 |
| 20260509165244 | 54 | 3 | 1.0 | 1.0 | 0.00 | 0.00 | 0.00 | 76 | 1020.0 |
| 20260509164744 | 54 | 64 | 3.0 | 3.0 | 0.00 | 0.00 | 0.00 | 75 | 1020.0 |
| 20260509164244 | 54 | 15 | 1.0 | 1.0 | 0.00 | 0.00 | 0.00 | 75 | 1020.0 |
| 20260509163745 | 54 | 353 | 0.0 | 1.0 | 0.00 | 0.00 | 0.00 | 75 | 1020.3 |
| 20260509163244 | 54 | 350 | 4.0 | 4.0 | 0.00 | 0.00 | 0.00 | 74 | 1020.3 |
| 20260509162744 | 54 | 53 | 2.0 | 2.0 | 0.00 | 0.00 | 0.00 | 75 | 1020.3 |
| 20260509162244 | 54 | 357 | 3.0 | 4.0 | 0.00 | 0.00 | 0.00 | 75 | 1020.0 |
| 20260509161744 | 54 | 11 | 1.0 | 2.0 | 0.00 | 0.00 | 0.00 | 75 | 1020.0 |
| 20260509161244 | 54 | 25 | 2.0 | 3.0 | 0.00 | 0.00 | 0.00 | 75 | 1020.0 |
| 20260509160744 | 54 | 348 | 1.0 | 2.0 | 0.00 | 0.00 | 0.00 | 75 | 1020.0 |
| 20260509160244 | 54 | 20 | 6.0 | 7.0 | 0.00 | 0.00 | 0.00 | 74 | 1020.0 |
| 20260509155744 | 54 | 69 | 4.0 | 4.0 | 0.00 | 0.00 | 0.00 | 74 | 1020.0 |
| 20260509155244 | 55 | 91 | 1.0 | 4.0 | 0.00 | 0.00 | 0.00 | 73 | 1020.0 |
| 20260509154744 | 55 | 0 | 3.0 | 4.0 | 0.00 | 0.00 | 0.00 | 71 | 1020.0 |
| 20260509154244 | 55 | 350 | 3.0 | 4.0 | 0.00 | 0.00 | 0.00 | 70 | 1020.0 |
| 20260509153744 | 55 | 341 | 2.0 | 2.0 | 0.00 | 0.00 | 0.00 | 68 | 1020.0 |
| 20260509153244 | 55 | 25 | 4.0 | 5.0 | 0.00 | 0.00 | 0.00 | 67 | 1020.0 |
| 20260509152744 | 55 | 342 | 1.0 | 4.0 | 0.00 | 0.00 | 0.00 | 69 | 1020.0 |
| 20260509152244 | 55 | 25 | 1.0 | 1.0 | 0.00 | 0.00 | 0.00 | 69 | 1020.0 |
| 20260509151744 | 55 | 343 | 3.0 | 3.0 | 0.00 | 0.00 | 0.00 | 70 | 1020.0 |
| 20260509151244 | 55 | 347 | 2.0 | 2.0 | 0.00 | 0.00 | 0.00 | 69 | 1020.0 |
| 20260509150744 | 55 | 347 | 2.0 | 2.0 | 0.00 | 0.00 | 0.00 | 68 | 1020.0 |
| 20260509150244 | 56 | 349 | 2.0 | 3.0 | 0.00 | 0.00 | 0.00 | 66 | 1020.0 |
| 20260509145744 | 56 | 339 | 2.0 | 3.0 | 0.00 | 0.00 | 0.00 | 66 | 1020.0 |
| 20260509145244 | 56 | 76 | 4.0 | 7.0 | 0.00 | 0.00 | 0.00 | 64 | 1020.0 |
| 20260509144744 | 57 | 340 | 2.0 | 3.0 | 0.00 | 0.00 | 0.00 | 66 | 1020.0 |
| 20260509144244 | 56 | 351 | 1.0 | 3.0 | 0.00 | 0.00 | 0.00 | 65 | 1020.0 |
| 20260509143744 | 56 | 20 | 4.0 | 5.0 | 0.00 | 0.00 | 0.00 | 64 | 1020.0 |
| 20260509143244 | 56 | 330 | 2.0 | 3.0 | 0.00 | 0.00 | 0.00 | 64 | 1020.0 |
| 20260509142744 | 56 | 340 | 6.0 | 9.0 | 0.00 | 0.00 | 0.00 | 66 | 1020.0 |
| 20260509142244 | 56 | 332 | 2.0 | 4.0 | 0.00 | 0.00 | 0.00 | 66 | 1020.0 |
| 20260509141744 | 56 | 355 | 4.0 | 6.0 | 0.00 | 0.00 | 0.00 | 67 | 1020.0 |
| 20260509141244 | 56 | 348 | 5.0 | 5.0 | 0.00 | 0.00 | 0.00 | 65 | 1020.0 |
| 20260509140744 | 56 | 333 | 7.0 | 7.0 | 0.00 | 0.00 | 0.00 | 65 | 1020.0 |
| 20260509140244 | 56 | 341 | 3.0 | 6.0 | 0.00 | 0.00 | 0.00 | 65 | 1020.0 |
| 20260509135744 | 56 | 25 | 5.0 | 5.0 | 0.00 | 0.00 | 0.00 | 64 | 1020.0 |
| 20260509135244 | 56 | 344 | 2.0 | 5.0 | 0.00 | 0.00 | 0.00 | 66 | 1020.0 |
| 20260509134744 | 55 | 340 | 6.0 | 8.0 | 0.00 | 0.00 | 0.00 | 64 | 1020.0 |
| 20260509134244 | 55 | 343 | 4.0 | 6.0 | 0.00 | 0.00 | 0.00 | 64 | 1020.0 |
| 20260509133744 | 56 | 323 | 8.0 | 9.0 | 0.00 | 0.00 | 0.00 | 64 | 1020.0 |
| 20260509133244 | 56 | 344 | 6.0 | 6.0 | 0.00 | 0.00 | 0.00 | 63 | 1020.0 |
| 20260509132744 | 56 | 337 | 6.0 | 10.0 | 0.00 | 0.00 | 0.00 | 62 | 1020.0 |
| 20260509132244 | 56 | 324 | 3.0 | 3.0 | 0.00 | 0.00 | 0.00 | 61 | 1020.0 |
| 20260509131744 | 57 | 352 | 4.0 | 7.0 | 0.00 | 0.00 | 0.00 | 60 | 1020.0 |
| 20260509131244 | 58 | 321 | 4.0 | 6.0 | 0.00 | 0.00 | 0.00 | 59 | 1020.0 |
| 20260509130744 | 58 | 20 | 5.0 | 6.0 | 0.00 | 0.00 | 0.00 | 58 | 1020.0 |
| 20260509130244 | 58 | 337 | 0.0 | 1.0 | 0.00 | 0.00 | 0.00 | 59 | 1020.0 |
| 20260509125744 | 58 | 320 | 3.0 | 4.0 | 0.00 | 0.00 | 0.00 | 59 | 1020.0 |
| 20260509125244 | 57 | 293 | 5.0 | 6.0 | 0.00 | 0.00 | 0.00 | 59 | 1020.0 |
| 20260509124744 | 58 | 283 | 5.0 | 6.0 | 0.00 | 0.00 | 0.00 | 60 | 1020.0 |
| 20260509124244 | 58 | 340 | 6.0 | 7.0 | 0.00 | 0.00 | 0.00 | 58 | 1020.0 |
| 20260509123744 | 58 | 354 | 1.0 | 2.0 | 0.00 | 0.00 | 0.00 | 58 | 1020.0 |
| 20260509123244 | 58 | 10 | 2.0 | 2.0 | 0.00 | 0.00 | 0.00 | 58 | 1020.0 |
| 20260509122744 | 58 | 15 | 3.0 | 4.0 | 0.00 | 0.00 | 0.00 | 59 | 1020.0 |
| 20260509122244 | 57 | 15 | 1.0 | 1.0 | 0.00 | 0.00 | 0.00 | 60 | 1020.0 |
| 20260509121744 | 57 | 332 | 2.0 | 3.0 | 0.00 | 0.00 | 0.00 | 63 | 1020.0 |
| 20260509121244 | 56 | 307 | 4.0 | 6.0 | 0.00 | 0.00 | 0.00 | 61 | 1020.3 |
| 20260509120744 | 57 | 332 | 1.0 | 1.0 | 0.00 | 0.00 | 0.00 | 64 | 1020.3 |
| 20260509120244 | 57 | 329 | 3.0 | 5.0 | 0.00 | 0.00 | 0.00 | 62 | 1020.3 |
| 20260509115744 | 56 | 314 | 6.0 | 6.0 | 0.00 | 0.00 | 0.00 | 62 | 1020.3 |
| 20260509115244 | 56 | 286 | 3.0 | 4.0 | 0.00 | 0.00 | 0.00 | 63 | 1020.3 |
| 20260509114744 | 56 | 308 | 5.0 | 6.0 | 0.00 | 0.00 | 0.00 | 63 | 1020.3 |
| 20260509114244 | 56 | 336 | 3.0 | 5.0 | 0.00 | 0.00 | 0.00 | 63 | 1020.3 |
| 20260509113744 | 55 | 341 | 4.0 | 5.0 | 0.00 | 0.00 | 0.00 | 65 | 1020.3 |
| 20260509113244 | 55 | 343 | 4.0 | 7.0 | 0.00 | 0.00 | 0.00 | 65 | 1020.3 |
| 20260509112744 | 55 | 337 | 0.0 | 0.0 | 0.00 | 0.00 | 0.00 | 67 | 1020.3 |
| 20260509112244 | 55 | 46 | 3.0 | 4.0 | 0.00 | 0.00 | 0.00 | 65 | 1020.3 |
| 20260509111744 | 55 | 332 | 4.0 | 5.0 | 0.00 | 0.00 | 0.00 | 63 | 1020.3 |
| 20260509111244 | 56 | 332 | 2.0 | 2.0 | 0.00 | 0.00 | 0.00 | 64 | 1020.3 |
| 20260509110744 | 56 | 294 | 3.0 | 3.0 | 0.00 | 0.00 | 0.00 | 65 | 1020.3 |
| 20260509110244 | 56 | 316 | 3.0 | 6.0 | 0.00 | 0.00 | 0.00 | 62 | 1020.3 |
| 20260509105744 | 56 | 65 | 2.0 | 2.0 | 0.00 | 0.00 | 0.00 | 61 | 1020.3 |
| 20260509105244 | 56 | 26 | 4.0 | 6.0 | 0.00 | 0.00 | 0.00 | 60 | 1020.3 |
| 20260509104744 | 55 | 319 | 9.0 | 10.0 | 0.00 | 0.00 | 0.00 | 58 | 1020.7 |
| 20260509104244 | 55 | 322 | 6.0 | 9.0 | 0.00 | 0.00 | 0.00 | 59 | 1020.7 |
| 20260509103744 | 55 | 332 | 7.0 | 7.0 | 0.00 | 0.00 | 0.00 | 63 | 1020.7 |
| 20260509103244 | 55 | 305 | 5.0 | 6.0 | 0.00 | 0.00 | 0.00 | 63 | 1020.7 |
| 20260509102744 | 55 | 69 | 1.0 | 1.0 | 0.00 | 0.00 | 0.00 | 65 | 1020.7 |
| 20260509102244 | 55 | 351 | 6.0 | 7.0 | 0.00 | 0.00 | 0.00 | 63 | 1020.7 |
| 20260509101744 | 55 | 349 | 3.0 | 4.0 | 0.00 | 0.00 | 0.00 | 66 | 1020.7 |
| 20260509101244 | 55 | 317 | 5.0 | 5.0 | 0.00 | 0.00 | 0.00 | 63 | 1020.7 |
| 20260509100744 | 55 | 301 | 6.0 | 6.0 | 0.00 | 0.00 | 0.00 | 62 | 1020.7 |
| 20260509100244 | 56 | 348 | 3.0 | 6.0 | 0.00 | 0.00 | 0.00 | 61 | 1020.7 |
| 20260509095744 | 56 | 349 | 2.0 | 3.0 | 0.00 | 0.00 | 0.00 | 60 | 1020.3 |
| 20260509095244 | 56 | 320 | 4.0 | 4.0 | 0.00 | 0.00 | 0.00 | 60 | 1020.3 |
| 20260509094744 | 56 | 319 | 6.0 | 6.0 | 0.00 | 0.00 | 0.00 | 59 | 1020.3 |
| 20260509094244 | 56 | 332 | 6.0 | 8.0 | 0.00 | 0.00 | 0.00 | 55 | 1020.3 |
| 20260509093744 | 56 | 31 | 7.0 | 7.0 | 0.00 | 0.00 | 0.00 | 54 | 1020.3 |
| 20260509092744 | 56 | 356 | 3.0 | 3.0 | 0.00 | 0.00 | 0.00 | 55 | 1020.3 |
| 20260509092244 | 56 | 348 | 6.0 | 6.0 | 0.00 | 0.00 | 0.00 | 54 | 1020.3 |
| 20260509091744 | 56 | 326 | 7.0 | 9.0 | 0.00 | 0.00 | 0.00 | 59 | 1020.3 |
| 20260509091244 | 56 | 335 | 2.0 | 3.0 | 0.00 | 0.00 | 0.00 | 59 | 1020.3 |
| 20260509090744 | 56 | 304 | 4.0 | 4.0 | 0.00 | 0.00 | 0.00 | 61 | 1020.3 |
| 20260509090244 | 57 | 336 | 4.0 | 4.0 | 0.00 | 0.00 | 0.00 | 61 | 1020.3 |
| 20260509085744 | 56 | 359 | 10.0 | 10.0 | 0.00 | 0.00 | 0.00 | 60 | 1020.3 |
| 20260509085244 | 56 | 26 | 7.0 | 11.0 | 0.00 | 0.00 | 0.00 | 60 | 1020.3 |
| 20260509084744 | 56 | 341 | 7.0 | 13.0 | 0.00 | 0.00 | 0.00 | 61 | 1020.3 |
| 20260509084244 | 56 | 295 | 10.0 | 11.0 | 0.00 | 0.00 | 0.00 | 60 | 1020.3 |
| 20260509083744 | 56 | 359 | 5.0 | 13.0 | 0.00 | 0.00 | 0.00 | 63 | 1020.0 |
| 20260509083244 | 56 | 300 | 5.0 | 10.0 | 0.00 | 0.00 | 0.00 | 64 | 1020.0 |
| 20260509082744 | 56 | 308 | 6.0 | 7.0 | 0.00 | 0.00 | 0.00 | 66 | 1020.0 |
| 20260509082244 | 55 | 317 | 12.0 | 12.0 | 0.00 | 0.00 | 0.00 | 65 | 1020.0 |
| 20260509081744 | 55 | 324 | 9.0 | 12.0 | 0.00 | 0.00 | 0.00 | 65 | 1020.0 |
| 20260509081244 | 56 | 323 | 6.0 | 6.0 | 0.00 | 0.00 | 0.00 | 67 | 1020.0 |
| 20260509080744 | 55 | 314 | 6.0 | 7.0 | 0.00 | 0.00 | 0.00 | 65 | 1020.0 |
| 20260509080244 | 55 | 331 | 6.0 | 8.0 | 0.00 | 0.00 | 0.00 | 64 | 1020.0 |
| 20260509075744 | 55 | 333 | 5.0 | 8.0 | 0.00 | 0.00 | 0.00 | 67 | 1020.0 |
| 20260509075244 | 55 | 329 | 3.0 | 4.0 | 0.00 | 0.00 | 0.00 | 67 | 1020.0 |
| 20260509074747 | 54 | 354 | 9.0 | 10.0 | 0.00 | 0.00 | 0.00 | 67 | 1020.0 |
| 20260509074244 | 55 | 6 | 6.0 | 8.0 | 0.00 | 0.00 | 0.00 | 67 | 1020.0 |
| 20260509073744 | 54 | 354 | 10.0 | 10.0 | 0.00 | 0.00 | 0.00 | 71 | 1020.0 |
| 20260509073244 | 54 | 342 | 8.0 | 10.0 | 0.00 | 0.00 | 0.00 | 70 | 1020.0 |
| 20260509072744 | 54 | 334 | 3.0 | 5.0 | 0.00 | 0.00 | 0.00 | 70 | 1020.0 |
| 20260509072244 | 54 | 312 | 7.0 | 7.0 | 0.00 | 0.00 | 0.00 | 70 | 1020.0 |
| 20260509071744 | 54 | 325 | 7.0 | 11.0 | 0.00 | 0.00 | 0.00 | 69 | 1020.0 |
| 20260509071244 | 55 | 28 | 7.0 | 11.0 | 0.00 | 0.00 | 0.00 | 67 | 1020.0 |
| 20260509070744 | 55 | 323 | 3.0 | 5.0 | 0.00 | 0.00 | 0.00 | 66 | 1020.0 |
| 20260509070244 | 55 | 352 | 2.0 | 8.0 | 0.00 | 0.00 | 0.00 | 69 | 1020.0 |
| 20260509065744 | 54 | 305 | 4.0 | 6.0 | 0.00 | 0.00 | 0.00 | 68 | 1020.0 |
| 20260509065244 | 54 | 318 | 4.0 | 6.0 | 0.00 | 0.00 | 0.00 | 71 | 1020.0 |
| 20260509064744 | 54 | 318 | 6.0 | 8.0 | 0.00 | 0.00 | 0.00 | 70 | 1020.0 |
| 20260509064244 | 55 | 354 | 9.0 | 9.0 | 0.00 | 0.00 | 0.00 | 68 | 1020.0 |
| 20260509063744 | 54 | 320 | 7.0 | 11.0 | 0.00 | 0.00 | 0.00 | 67 | 1020.0 |
| 20260509063244 | 54 | 40 | 3.0 | 4.0 | 0.00 | 0.00 | 0.00 | 70 | 1020.0 |
| 20260509062744 | 53 | 285 | 6.0 | 7.0 | 0.00 | 0.00 | 0.00 | 71 | 1020.0 |
| 20260509062244 | 54 | 321 | 6.0 | 7.0 | 0.00 | 0.00 | 0.00 | 72 | 1020.0 |
| 20260509061744 | 54 | 337 | 1.0 | 1.0 | 0.00 | 0.00 | 0.00 | 72 | 1020.0 |
| 20260509061244 | 53 | 339 | 4.0 | 6.0 | 0.00 | 0.00 | 0.00 | 74 | 1020.0 |
| 20260509060744 | 53 | 350 | 3.0 | 3.0 | 0.00 | 0.00 | 0.00 | 75 | 1020.0 |
| 20260509060244 | 53 | 336 | 4.0 | 5.0 | 0.00 | 0.00 | 0.00 | 77 | 1020.0 |
| 20260509055744 | 53 | 321 | 3.0 | 3.0 | 0.00 | 0.00 | 0.00 | 79 | 1020.0 |
| 20260509055244 | 51 | 338 | 3.0 | 3.0 | 0.00 | 0.00 | 0.00 | 82 | 1020.0 |
| 20260509054744 | 51 | 335 | 6.0 | 8.0 | 0.00 | 0.00 | 0.00 | 80 | 1020.0 |
| 20260509054244 | 53 | 288 | 3.0 | 5.0 | 0.00 | 0.00 | 0.00 | 79 | 1020.0 |
| 20260509053744 | 53 | 15 | 2.0 | 4.0 | 0.00 | 0.00 | 0.00 | 80 | 1020.0 |
| 20260509053244 | 52 | 356 | 1.0 | 1.0 | 0.00 | 0.00 | 0.00 | 81 | 1020.0 |
| 20260509052744 | 53 | 340 | 0.0 | 1.0 | 0.00 | 0.00 | 0.00 | 82 | 1020.0 |
| 20260509052244 | 51 | 318 | 2.0 | 3.0 | 0.00 | 0.00 | 0.00 | 83 | 1020.0 |
| 20260509051244 | 50 | 341 | 2.0 | 2.0 | 0.00 | 0.00 | 0.00 | 88 | 1020.0 |
| 20260509050744 | 50 | 344 | 2.0 | 2.0 | 0.00 | 0.00 | 0.00 | 88 | 1020.0 |
| 20260509050244 | 50 | 333 | 3.0 | 5.0 | 0.00 | 0.00 | 0.00 | 88 | 1020.0 |
| 20260509045744 | 50 | 343 | 3.0 | 4.0 | 0.00 | 0.00 | 0.00 | 89 | 1020.0 |
| 20260509045244 | 50 | 347 | 1.0 | 3.0 | 0.00 | 0.00 | 0.00 | 89 | 1020.0 |
| 20260509044744 | 49 | 324 | 4.0 | 4.0 | 0.00 | 0.00 | 0.00 | 88 | 1020.0 |
| 20260509044244 | 49 | 329 | 2.0 | 3.0 | 0.00 | 0.00 | 0.00 | 89 | 1020.0 |
| 20260509043744 | 49 | 318 | 4.0 | 6.0 | 0.00 | 0.00 | 0.00 | 89 | 1020.0 |
| 20260509043244 | 49 | 336 | 2.0 | 3.0 | 0.00 | 0.00 | 0.00 | 91 | 1020.0 |
| 20260509042744 | 49 | 337 | 2.0 | 2.0 | 0.00 | 0.00 | 0.00 | 91 | 1020.0 |
| 20260509042244 | 49 | 322 | 0.0 | 1.0 | 0.00 | 0.00 | 0.00 | 92 | 1020.0 |
| 20260509041744 | 49 | 326 | 0.0 | 1.0 | 0.00 | 0.00 | 0.00 | 92 | 1020.0 |
| 20260509041244 | 49 | 334 | 1.0 | 1.0 | 0.00 | 0.00 | 0.00 | 92 | 1020.0 |
| 20260509040744 | 49 | 328 | 1.0 | 1.0 | 0.00 | 0.00 | 0.00 | 93 | 1020.0 |
| 20260509040244 | 49 | 324 | 0.0 | 0.0 | 0.00 | 0.00 | 0.00 | 94 | 1020.0 |
| 20260509035744 | 49 | 324 | 0.0 | 0.0 | 0.00 | 0.00 | 0.00 | 94 | 1020.0 |
| 20260509035244 | 49 | 323 | 1.0 | 1.0 | 0.00 | 0.00 | 0.00 | 94 | 1020.0 |
| 20260509034744 | 49 | 319 | 1.0 | 1.0 | 0.00 | 0.00 | 0.00 | 94 | 1020.0 |
| 20260509034244 | 48 | 320 | 0.0 | 1.0 | 0.00 | 0.00 | 0.00 | 94 | 1020.0 |
| 20260509033744 | 48 | 322 | 0.0 | 0.0 | 0.00 | 0.00 | 0.00 | 95 | 1020.0 |
| 20260509033244 | 48 | 320 | 0.0 | 0.0 | 0.00 | 0.00 | 0.00 | 96 | 1020.0 |
| 20260509032744 | 49 | 326 | 0.0 | 0.0 | 0.00 | 0.00 | 0.00 | 96 | 1020.0 |
| 20260509032244 | 48 | 331 | 1.0 | 1.0 | 0.00 | 0.00 | 0.00 | 95 | 1020.0 |
| 20260509031744 | 48 | 331 | 0.0 | 0.0 | 0.00 | 0.00 | 0.00 | 95 | 1020.0 |
| 20260509031244 | 48 | 326 | 0.0 | 0.0 | 0.00 | 0.00 | 0.00 | 95 | 1020.0 |
| 20260509030744 | 48 | 324 | 0.0 | 0.0 | 0.00 | 0.00 | 0.00 | 95 | 1020.0 |
| 20260509030244 | 49 | 324 | 0.0 | 0.0 | 0.00 | 0.00 | 0.00 | 95 | 1020.0 |
| 20260509025744 | 49 | 324 | 0.0 | 0.0 | 0.00 | 0.00 | 0.00 | 95 | 1020.0 |
| 20260509025244 | 49 | 324 | 0.0 | 0.0 | 0.00 | 0.00 | 0.00 | 95 | 1020.0 |
| 20260509024744 | 48 | 324 | 0.0 | 0.0 | 0.00 | 0.00 | 0.00 | 94 | 1020.0 |
| 20260509024244 | 49 | 323 | 0.0 | 0.0 | 0.00 | 0.00 | 0.00 | 95 | 1020.0 |
| 20260509023744 | 49 | 321 | 1.0 | 1.0 | 0.00 | 0.00 | 0.00 | 95 | 1020.0 |
| 20260509023244 | 49 | 324 | 0.0 | 0.0 | 0.00 | 0.00 | 0.00 | 94 | 1020.0 |
| 20260509022744 | 49 | 323 | 0.0 | 0.0 | 0.00 | 0.00 | 0.00 | 95 | 1020.0 |
| 20260509022244 | 48 | 322 | 0.0 | 0.0 | 0.00 | 0.00 | 0.00 | 95 | 1020.0 |
| 20260509021744 | 49 | 323 | 0.0 | 0.0 | 0.00 | 0.00 | 0.00 | 95 | 1020.0 |
| 20260509021244 | 49 | 318 | 0.0 | 0.0 | 0.00 | 0.00 | 0.00 | 95 | 1020.0 |
| 20260509020244 | 48 | 341 | 0.0 | 0.0 | 0.00 | 0.00 | 0.00 | 94 | 1020.0 |
| 20260509015744 | 49 | 343 | 0.0 | 1.0 | 0.00 | 0.00 | 0.00 | 94 | 1020.0 |
| 20260509015244 | 48 | 337 | 0.0 | 0.0 | 0.00 | 0.00 | 0.00 | 94 | 1020.0 |
| 20260509014744 | 49 | 334 | 0.0 | 0.0 | 0.00 | 0.00 | 0.00 | 94 | 1020.0 |
| 20260509014244 | 49 | 329 | 0.0 | 0.0 | 0.00 | 0.00 | 0.00 | 93 | 1020.0 |
| 20260509013744 | 49 | 319 | 1.0 | 1.0 | 0.00 | 0.00 | 0.00 | 94 | 1020.0 |
| 20260509013243 | 49 | 316 | 0.0 | 1.0 | 0.00 | 0.00 | 0.00 | 94 | 1020.0 |
| 20260509012744 | 49 | 334 | 0.0 | 0.0 | 0.00 | 0.00 | 0.00 | 94 | 1020.0 |
| 20260509012244 | 49 | 334 | 0.0 | 0.0 | 0.00 | 0.00 | 0.00 | 93 | 1020.0 |
| 20260509011744 | 49 | 334 | 0.0 | 0.0 | 0.00 | 0.00 | 0.00 | 92 | 1020.0 |
| 20260509011244 | 49 | 317 | 0.0 | 0.0 | 0.00 | 0.00 | 0.00 | 92 | 1020.0 |
| 20260509010744 | 49 | 316 | 0.0 | 0.0 | 0.00 | 0.00 | 0.00 | 92 | 1020.0 |
| 20260509010244 | 49 | 314 | 1.0 | 1.0 | 0.00 | 0.00 | 0.00 | 92 | 1020.0 |
| 20260509005743 | 49 | 294 | 1.0 | 2.0 | 0.00 | 0.00 | 0.00 | 92 | 1020.0 |
| 20260509005244 | 49 | 326 | 0.0 | 0.0 | 0.00 | 0.00 | 0.00 | 92 | 1020.0 |
| 20260509004744 | 49 | 325 | 0.0 | 0.0 | 0.00 | 0.00 | 0.00 | 92 | 1020.0 |
| 20260509004243 | 49 | 322 | 0.0 | 0.0 | 0.00 | 0.00 | 0.00 | 92 | 1020.0 |
| 20260509003744 | 49 | 318 | 0.0 | 1.0 | 0.00 | 0.00 | 0.00 | 92 | 1020.0 |
| 20260509003243 | 49 | 333 | 0.0 | 0.0 | 0.00 | 0.00 | 0.00 | 92 | 1020.0 |
| 20260509002744 | 49 | 330 | 2.0 | 2.0 | 0.00 | 0.00 | 0.00 | 91 | 1020.0 |
| 20260509002244 | 49 | 342 | 0.0 | 0.0 | 0.00 | 0.00 | 0.00 | 92 | 1020.0 |
| 20260509001744 | 49 | 337 | 1.0 | 1.0 | 0.00 | 0.00 | 0.00 | 92 | 1020.0 |
| 20260509001244 | 49 | 330 | 1.0 | 1.0 | 0.00 | 0.00 | 0.00 | 93 | 1020.0 |
| 20260509000744 | 49 | 329 | 0.0 | 0.0 | 0.00 | 0.00 | 0.00 | 91 | 1020.0 |
| 20260509000244 | 49 | 330 | 0.0 | 0.0 | 0.00 | 0.00 | 0.00 | 93 | 1020.0 |
| 20260508235744 | 49 | 331 | 0.0 | 0.0 | 0.00 | 0.00 | 0.00 | 93 | 1020.0 |
| 20260508235244 | 49 | 344 | 0.0 | 0.0 | 0.00 | 0.00 | 0.00 | 92 | 1020.0 |
| 20260508234744 | 49 | 345 | 0.0 | 0.0 | 0.00 | 0.00 | 0.00 | 92 | 1020.0 |
| 20260508234244 | 49 | 345 | 0.0 | 1.0 | 0.00 | 0.00 | 0.00 | 92 | 1020.0 |
| 20260508233744 | 49 | 339 | 1.0 | 1.0 | 0.00 | 0.00 | 0.00 | 91 | 1020.0 |
| 20260508233244 | 50 | 332 | 0.0 | 0.0 | 0.00 | 0.00 | 0.00 | 91 | 1020.0 |
| 20260508232744 | 50 | 332 | 0.0 | 0.0 | 0.00 | 0.00 | 0.00 | 91 | 1020.0 |
| 20260508232243 | 50 | 328 | 0.0 | 0.0 | 0.00 | 0.00 | 0.00 | 90 | 1020.0 |
| 20260508231743 | 50 | 325 | 1.0 | 1.0 | 0.00 | 0.00 | 0.00 | 91 | 1020.0 |
| 20260508231244 | 50 | 331 | 0.0 | 1.0 | 0.00 | 0.00 | 0.00 | 91 | 1020.0 |
| 20260508230744 | 50 | 330 | 2.0 | 2.0 | 0.00 | 0.00 | 0.00 | 91 | 1020.0 |
| 20260508230244 | 50 | 335 | 2.0 | 3.0 | 0.00 | 0.00 | 0.00 | 91 | 1020.0 |
| 20260508225744 | 50 | 334 | 1.0 | 2.0 | 0.00 | 0.00 | 0.00 | 92 | 1020.0 |
| 20260508225243 | 50 | 338 | 0.0 | 0.0 | 0.00 | 0.00 | 0.00 | 91 | 1020.0 |
| 20260508224744 | 50 | 339 | 0.0 | 0.0 | 0.00 | 0.00 | 0.00 | 91 | 1020.0 |
| 20260508224244 | 50 | 334 | 1.0 | 1.0 | 0.00 | 0.00 | 0.00 | 91 | 1020.0 |
| 20260508223743 | 50 | 335 | 1.0 | 1.0 | 0.00 | 0.00 | 0.00 | 91 | 1020.0 |
| 20260508223243 | 50 | 329 | 0.0 | 0.0 | 0.00 | 0.00 | 0.00 | 90 | 1020.0 |
| 20260508222743 | 50 | 324 | 1.0 | 1.0 | 0.00 | 0.00 | 0.00 | 92 | 1020.0 |
| 20260508222243 | 50 | 320 | 2.0 | 2.0 | 0.00 | 0.00 | 0.00 | 89 | 1020.0 |
| 20260508221744 | 50 | 343 | 0.0 | 0.0 | 0.00 | 0.00 | 0.00 | 89 | 1020.0 |
| 20260508221243 | 50 | 344 | 0.0 | 0.0 | 0.00 | 0.00 | 0.00 | 87 | 1020.0 |
| 20260508220744 | 50 | 345 | 0.0 | 0.0 | 0.00 | 0.00 | 0.00 | 87 | 1020.0 |
| 20260508220244 | 51 | 345 | 0.0 | 1.0 | 0.00 | 0.00 | 0.00 | 86 | 1020.0 |
| 20260508215743 | 51 | 337 | 0.0 | 0.0 | 0.00 | 0.00 | 0.66 | 84 | 1020.0 |
| 20260508215243 | 51 | 337 | 0.0 | 0.0 | 0.00 | 0.00 | 0.66 | 84 | 1020.0 |
| 20260508214744 | 51 | 337 | 0.0 | 0.0 | 0.00 | 0.00 | 0.66 | 85 | 1020.0 |
| 20260508214243 | 51 | 326 | 2.0 | 2.0 | 0.00 | 0.00 | 0.66 | 84 | 1020.0 |
| 20260508213743 | 51 | 335 | 0.0 | 1.0 | 0.00 | 0.00 | 0.66 | 84 | 1020.0 |
| 20260508213243 | 51 | 349 | 0.0 | 0.0 | 0.00 | 0.00 | 0.66 | 85 | 1020.0 |
| 20260508212743 | 51 | 322 | 2.0 | 4.0 | 0.00 | 0.00 | 0.66 | 84 | 1020.0 |
| 20260508212243 | 51 | 334 | 0.0 | 0.0 | 0.00 | 0.00 | 0.66 | 85 | 1020.0 |
| 20260508211743 | 51 | 330 | 1.0 | 1.0 | 0.00 | 0.00 | 0.66 | 84 | 1020.0 |
| 20260508211243 | 51 | 339 | 0.0 | 0.0 | 0.00 | 0.00 | 0.66 | 85 | 1020.0 |
| 20260508210744 | 51 | 339 | 0.0 | 1.0 | 0.00 | 0.00 | 0.66 | 84 | 1020.0 |
| 20260508210244 | 51 | 348 | 1.0 | 1.0 | 0.00 | 0.00 | 0.66 | 84 | 1020.0 |
| 20260508205744 | 51 | 357 | 0.0 | 0.0 | 0.00 | 0.00 | 0.66 | 83 | 1020.0 |
| 20260508205244 | 51 | 340 | 1.0 | 1.0 | 0.00 | 0.00 | 0.66 | 83 | 1020.0 |